This demonstration page uses our WeatherBlox Daily Observations layout. Learn more.

Hourly Observations for February 5, 2019

Temp ( °F °C ) Dew Point ( °F °C ) Humidity (%) Winds ( mph kmh ) Pressure ( in mb ) Visibility ( mi km ) Precip ( " mm )
12:15 am 00:15 Clear 13 -10.5 7 -14 76 76 NE 12 19 30.2 1023 10 16.0934 0 0
12:35 am 00:35 Clear 13 -10.8 6 -14.6 74 74 NE 12 19 30.2 1023 10 16.0934 0 0
12:55 am 00:55 Clear 12 -11 5 -15 73 73 NE 9 15 30.21 1023 10 16.0934 0 0
1:15 am 01:15 Clear 12 -11.2 6 -14.7 76 76 NE 12 19 30.21 1023 10 16.0934 0 0
1:35 am 01:35 Partly Cloudy 11 -11.5 5 -15 76 76 NE 13 20 30.21 1023 10 16.0934 0 0
1:55 am 01:55 Clear 11 -11.6 5 -15.1 76 76 ENE 10 17 30.21 1023 10 16.0934 0 0
2:15 am 02:15 Clear 11 -11.9 4 -15.8 73 73 NE 10 17 30.21 1023 10 16.0934 0 0
2:35 am 02:35 Clear 10 -12 3 -16 72 72 NE 13 20 30.2 1023 10 16.0934 0 0
2:55 am 02:55 Clear 10 -12 3 -16 72 72 ENE 13 20 30.22 1023 10 16.0934 0 0
3:15 am 03:15 Clear 10 -12.1 3 -16.1 72 72 NE 12 19 30.22 1023 10 16.0934 0 0
3:35 am 03:35 Clear 10 -12.2 2 -16.5 71 71 ENE 10 17 30.22 1023 10 16.0934 0 0
3:55 am 03:55 Clear 10 -12.5 2 -16.7 71 71 ENE 10 17 30.21 1023 10 16.0934 0 0
4:15 am 04:15 Clear 10 -12.5 2 -16.5 72 72 ENE 12 19 30.2 1023 10 16.0934 0 0
4:35 am 04:35 Clear 10 -12.5 3 -16.1 75 75 ENE 9 15 30.21 1023 10 16.0934 0 0
4:55 am 04:55 Partly Cloudy 10 -12.5 3 -16.2 74 74 ENE 10 17 30.2 1023 10 16.0934 0 0
5:15 am 05:15 Mostly Cloudy 9 -12.7 3 -16.2 75 75 NE 10 17 30.19 1022 10 16.0934 0 0
5:35 am 05:35 Cloudy 9 -12.6 3 -16.1 75 75 ENE 10 17 30.2 1023 10 16.0934 0 0
5:55 am 05:55 Cloudy 9 -13 2 -16.4 76 76 ENE 10 17 30.21 1023 10 16.0934 0 0
6:15 am 06:15 Cloudy 9 -13 3 -16.2 77 77 ENE 12 19 30.19 1022 10 16.0934 0 0
6:35 am 06:35 Cloudy 8 -13.1 2 -16.5 76 76 ENE 9 15 30.2 1023 10 16.0934 0 0
6:55 am 06:55 Cloudy 9 -13 3 -16.2 77 77 ENE 9 15 30.18 1022 10 16.0934 0 0
7:15 am 07:15 Cloudy 8 -13.1 2 -16.5 76 76 ENE 10 17 30.19 1022 10 16.0934 0 0
7:35 am 07:35 Cloudy 9 -13 2 -16.4 76 76 ENE 8 13 30.2 1023 10 16.0934 0 0
7:55 am 07:55 Cloudy 9 -13 2 -16.5 75 75 ENE 8 13 30.2 1023 10 16.0934 0 0
8:15 am 08:15 Cloudy 8 -13.1 2 -16.5 76 76 E 8 13 30.2 1023 10 16.0934 0 0
8:35 am 08:35 Cloudy 8 -13.1 2 -16.5 76 76 NE 7 11 30.2 1023 10 16.0934 0 0
8:55 am 08:55 Cloudy 9 -12.9 3 -16.3 76 76 NNE 8 13 30.19 1022 10 16.0934 0 0
9:15 am 09:15 Cloudy 9 -13 2 -16.5 75 75 NE 6 9 30.2 1023 10 16.0934 0 0
9:35 am 09:35 Cloudy 9 -12.6 3 -16.3 74 74 ENE 6 9 30.19 1022 10 16.0934 0 0
9:55 am 09:55 Cloudy 10 -12.5 3 -16.3 74 74 E 6 9 30.18 1022 10 16.0934 0 0
10:15 am 10:15 Cloudy 10 -12.3 3 -16.2 73 73 NE 6 9 30.18 1022 10 16.0934 0 0
10:35 am 10:35 Cloudy 10 -12.2 3 -16 74 74 ENE 6 9 30.17 1022 10 16.0934 0 0
10:55 am 10:55 Cloudy 11 -11.9 3 -15.9 72 72 ENE 5 7 30.17 1022 10 16.0934 0 0
11:15 am 11:15 Cloudy 11 -11.7 3 -15.9 71 71 Calm 30.17 1022 10 16.0934 0 0
11:35 am 11:35 Cloudy 12 -11.1 4 -15.5 70 70 ENE 6 9 30.16 1021 10 16.0934 0 0
11:55 am 11:55 Cloudy 13 -10.8 4 -15.4 69 69 E 3 6 30.14 1021 10 16.0934 0 0
12:15 pm 12:15 Cloudy 13 -10.5 5 -15.2 69 69 E 3 6 30.14 1021 10 16.0934 0 0
12:35 pm 12:35 Cloudy 13 -10.5 5 -15.2 69 69 Calm 30.12 1020 10 16.0934 0 0
12:55 pm 12:55 Cloudy 14 -10.1 5 -15 68 68 ESE 3 6 30.09 1019 10 16.0934 0 0
1:15 pm 13:15 Cloudy 14 -9.9 5 -14.9 67 67 SE 5 7 30.08 1019 10 16.0934 0 0
1:35 pm 13:35 Cloudy 15 -9.6 6 -14.6 67 67 Calm 30.08 1019 10 16.0934 0 0
1:55 pm 13:55 Cloudy 15 -9.5 6 -14.7 66 66 NE 3 6 30.07 1018 10 16.0934 0 0
2:15 pm 14:15 Cloudy 15 -9.4 6 -14.6 66 66 Calm 30.06 1018 10 16.0934 0 0
2:35 pm 14:35 Cloudy 16 -9 6 -14.3 66 66 Calm 30.05 1018 10 16.0934 0 0
2:55 pm 14:55 Cloudy 16 -8.7 7 -14.1 65 65 WNW 3 6 30.05 1018 10 16.0934 0 0
3:15 pm 15:15 Cloudy 17 -8.5 7 -14 65 65 N 3 6 30.04 1017 10 16.0934 0 0
3:35 pm 15:35 Cloudy 17 -8.6 7 -14.1 65 65 Calm 30.05 1018 10 16.0934 0 0
3:55 pm 15:55 Cloudy 17 -8.3 7 -13.9 64 64 Calm 30.04 1017 10 16.0934 0 0
4:15 pm 16:15 Cloudy 17 -8.4 7 -14 64 64 Calm 30.04 1017 10 16.0934 0 0
4:35 pm 16:35 Cloudy 17 -8.3 7 -13.9 64 64 Calm 30.05 1017 10 16.0934 0 0
4:55 pm 16:55 Cloudy 17 -8.2 7 -13.9 64 64 Calm 30.06 1018 10 16.0934 0 0
5:15 pm 17:15 Cloudy 17 -8.2 7 -13.8 64 64 Calm 30.07 1018 10 16.0934 0 0
5:35 pm 17:35 Cloudy 17 -8.1 7 -13.7 64 64 ENE 3 6 30.05 1018 10 16.0934 0 0
6:15 pm 18:15 Cloudy 17 -8.2 7 -14 63 63 Calm 30.06 1018 10 16.0934 0 0
6:35 pm 18:35 Cloudy 17 -8.1 7 -13.9 63 63 ENE 3 6 30.05 1018 10 16.0934 0 0
6:55 pm 18:55 Cloudy 17 -8.1 7 -13.8 64 64 E 3 6 30.06 1018 10 16.0934 0 0
7:15 pm 19:15 Cloudy 18 -8 7 -13.9 63 63 Calm 30.06 1018 10 16.0934 0 0
7:35 pm 19:35 Cloudy 18 -8 7 -14 62 62 E 5 7 30.06 1018 10 16.0934 0 0
7:55 pm 19:55 Cloudy 18 -8 7 -13.8 63 63 E 5 7 30.07 1018 10 16.0934 0 0
8:15 pm 20:15 Cloudy 18 -8 7 -14 62 62 E 5 7 30.07 1018 10 16.0934 0 0
8:35 pm 20:35 Cloudy 18 -8 7 -14 62 62 E 5 7 30.07 1018 10 16.0934 0 0
8:55 pm 20:55 Cloudy 18 -8 7 -13.8 63 63 ENE 5 7 30.07 1018 10 16.0934 0 0
9:15 pm 21:15 Cloudy 18 -8 8 -13.6 64 64 ENE 8 13 30.08 1019 10 16.0934 0 0
9:35 pm 21:35 Cloudy 17 -8.2 7 -13.9 64 64 ENE 8 13 30.09 1019 10 16.0934 0 0
9:55 pm 21:55 Cloudy 17 -8.2 7 -13.8 64 64 E 9 15 30.08 1018 10 16.0934 0 0
10:15 pm 22:15 Cloudy 17 -8.5 7 -13.8 66 66 ENE 10 17 30.08 1019 10 16.0934 0 0
10:35 pm 22:35 Cloudy 17 -8.5 7 -13.7 66 66 ENE 8 13 30.08 1019 10 16.0934 0 0
10:55 pm 22:55 Cloudy 16 -8.7 7 -14 66 66 ENE 8 13 30.1 1019 10 16.0934 0 0
11:15 pm 23:15 Cloudy 16 -8.8 7 -14 66 66 ENE 7 11 30.1 1019 10 16.0934 0 0
11:35 pm 23:35 Cloudy 16 -8.9 7 -14 67 67 ENE 6 9 30.11 1020 10 16.0934 0 0
11:55 pm 23:55 Cloudy 16 -9 7 -13.8 68 68 ENE 5 7 30.1 1019 10 16.0934 0 0

Powered by AerisWeather